STARLINK-2530, 48303

Orbit data source: Space-Track

STARLINK-2530, 48303 is a payload satellite owned by SpaceX/Seattle (US) in LEO that was launched on Thu, 29 Apr 2021 UTC via an FALCON 9 launch vehicle from the Air Force Eastern Test Range (AFETR). Payloads include a variety of satellites, spacecraft, and rockets equipped with specific instruments for various scientific and technological missions. These include communications satellites like Starlink; space stations such as the ISS; scientific satellites like the Hubble; Earth observation satellites from companies like Planet Labs, Umbra, and HawkEye 360; GPS; miniature CubeSats for education and research; and military/defense satellites.

Loading next visibility...
STARLINK-2530 details
Identifier
48303, 2021-036AD
Orbit
LEO
Last TLE update1 day ago
Origin
Flag of USSpaceX/Seattle (US)
ManufacturerSpaceX/Seattle
MissionOperational Commercial Communications
Bus & MotorSTARLINK, Unknown motor
Mass260 kg wet, ~248 kg dry
Launch date (UTC)
2021-04-29 (4 years ago)
Launch vehicle
FALCON 9
Launch site
Air Force Eastern Test Range (AFETR)
Object type
Payload
Rocket body
Debris
Shape & HBRBox + 1 Pan, 8.86 m
Radar Cross Section13.562 m², Large (>1 m²)

Expand to show TLE details & history

TLE from 1 day ago
0 STARLINK-2530
1 48303U 21036AD  25035.49043825 -.00000035  00000-0  16523-4 0  9990
2 48303  53.0565  79.7445 0001615 102.4930 257.6240 15.06388281208145
Epoch: 2025-02-04T11:46Z
Definitive object data (Epoch: 2025-02-04T11:46:13.864Z)
Latitude-0.00002°
Longitude128.29174°
Altitude548.367 km
Speed7.589 km/s
True Right ascension05h 18m 58s
True Declination0° 00' 00"
Sunlit
Object was in full shadow at TLE epoch
Visualization TLE readout
Latitude18.45766°
Longitude138.25928°
Altitude547.433 km
Speed7.591 km/s
Apparent Right ascension04h 13m 56s
Apparent Declination-10° 52' 41"
Sunlit
Object is in full shadow
Visualization observer readout
Local Sidereal Time13:48:32
Azimuth301.929° NW
Elevation-46.694°
Doppler factor1
Orbital elements
Apogee altitude548.636 km
Perigee altitude546.399 km
Semi-major axis6,925.655 km
Eccentricity0.0001615
Inclination53.0565°
RAAN79.7445°
Arg. of periapsis102.493°
True anomaly257.60592°
Mean anomaly257.624°
Eccentric anomaly257.61496°
Mean motion3.76575 °/min
BSTAR0.000016523
Orbital period95.6 mins
Loading maneuver chart data...
Loading historical data...
Loading historical data...
Loading historical data...
Loading historical data...
Loading historical data...
Loading historical data...
Loading historical data...

STARLINK-2530 Visibility forecast

Observer location: undefined°, undefined

Span
Click to sort rows by Start time (UTC) header in descending order
Start Az.
Max El. time (UTC)
Max El. Az.
Max El.
End time (UTC)
End Az.
8 mins2025-02-05 12:08:29.159Z312.328° NW2025-02-05 12:12:29.159Z29.163° NE44.119°2025-02-05 12:16:29.159Z125.013° SE
6 mins2025-02-06 05:22:29.159Z236.64° WSW2025-02-06 05:24:29.159Z281.102° WNW44.14°2025-02-06 05:28:29.159Z47.997° ENE
4 mins2025-02-06 07:03:29.159Z315.5° NNW2025-02-06 07:04:29.159Z334.645° NNW18.621°2025-02-06 07:07:29.159Z24.994° NE
5 mins2025-02-06 10:24:29.159Z346.749° N2025-02-06 10:26:29.159Z26.571° NE20.771°2025-02-06 10:29:29.159Z74.922° E
|